When you browse on this site, cookies collect data to enhance your experience and personalize the content and advertising you see.
Visit our Privacy Policy to learn more. By continuing to use the site, you agree to this use of cookies and data.
  • In Österreich
  • Länderverzeichnis
  • Für 7 Tage
  • Wassertemperatur
  • Wetterkarte
  • News
  • Widgets
  • user-avatar
    Anmelden

    Stündliche Wetter Albany

    Heute, 16 Dezember, Montag

    Zeit Temperatur Niederschläge Wind Luftdruck Luftfeuchtigkeit
    00:00 +18°C° 0 mm 1 m/S 752 mmHg 80%
    01:00 +18°C° 0 mm 1 m/S 752 mmHg 82%
    02:00 +18°C° 0 mm 1 m/S 751 mmHg 88%
    03:00 +18°C° 0 mm 1 m/S 751 mmHg 88%
    04:00 +18°C° 0 mm 1 m/S 751 mmHg 89%
    05:00 +18°C° 0 mm 1 m/S 751 mmHg 90%
    06:00 +19°C° 0 mm 2 m/S 751 mmHg 81%
    07:00 +21°C° 0 mm 3 m/S 752 mmHg 71%
    08:00 +24°C° 0 mm 3 m/S 752 mmHg 62%
    09:00 +25°C° 0 mm 4 m/S 752 mmHg 59%
    10:00 +26°C° 0 mm 4 m/S 753 mmHg 55%
    11:00 +27°C° 0 mm 4 m/S 753 mmHg 52%
    12:00 +27°C° 0 mm 5 m/S 753 mmHg 52%
    13:00 +27°C° 0 mm 5 m/S 752 mmHg 53%
    14:00 +27°C° 0 mm 5 m/S 752 mmHg 53%
    15:00 +26°C° 0 mm 5 m/S 752 mmHg 57%
    16:00 +25°C° 0 mm 5 m/S 752 mmHg 60%
    17:00 +22°C° 0 mm 5 m/S 752 mmHg 64%
    18:00 +21°C° 0 mm 4 m/S 753 mmHg 71%
    19:00 +20°C° 0 mm 4 m/S 753 mmHg 79%
    20:00 +18°C° 0 mm 4 m/S 754 mmHg 86%
    21:00 +18°C° 0 mm 3 m/S 754 mmHg 88%
    22:00 +17°C° 0 mm 2 m/S 755 mmHg 90%
    23:00 +17°C° 0 mm 2 m/S 755 mmHg 92%

    Morgen, 17 Dezember, Dienstag

    Zeit Temperatur Niederschläge Wind Luftdruck Luftfeuchtigkeit
    00:00 +18°C° 0 mm 1 m/S 754 mmHg 92%
    01:00 +16°C° 0 mm 1 m/S 754 mmHg 92%
    02:00 +15°C° 0 mm 0 m/S 754 mmHg 92%
    03:00 +16°C° 0 mm 1 m/S 754 mmHg 93%
    04:00 +16°C° 0 mm 1 m/S 754 mmHg 93%
    05:00 +16°C° 0 mm 1 m/S 755 mmHg 93%
    06:00 +18°C° 0 mm 2 m/S 755 mmHg 85%
    07:00 +20°C° 0 mm 2 m/S 755 mmHg 77%
    08:00 +22°C° 0 mm 3 m/S 755 mmHg 69%
    09:00 +24°C° 0 mm 3 m/S 755 mmHg 63%
    10:00 +25°C° 0 mm 4 m/S 755 mmHg 57%
    11:00 +26°C° 0 mm 4 m/S 755 mmHg 50%
    12:00 +27°C° 0 mm 4 m/S 755 mmHg 49%
    13:00 +27°C° 0 mm 4 m/S 755 mmHg 49%
    14:00 +27°C° 0 mm 4 m/S 755 mmHg 48%
    15:00 +26°C° 0 mm 4 m/S 755 mmHg 53%
    16:00 +25°C° 0 mm 5 m/S 755 mmHg 59%
    17:00 +23°C° 0 mm 5 m/S 755 mmHg 65%
    18:00 +21°C° 0 mm 5 m/S 756 mmHg 73%
    19:00 +20°C° 0 mm 4 m/S 756 mmHg 82%
    20:00 +19°C° 0 mm 4 m/S 756 mmHg 90%
    21:00 +18°C° 0 mm 4 m/S 756 mmHg 91%
    22:00 +18°C° 0 mm 4 m/S 757 mmHg 91%
    23:00 +18°C° 0 mm 3 m/S 757 mmHg 92%

    übermorgen, 18 Dezember, Mittwoch

    Zeit Temperatur Niederschläge Wind Luftdruck Luftfeuchtigkeit
    00:00 +18°C° 0 mm 3 m/S 757 mmHg 92%
    01:00 +17°C° 0 mm 2 m/S 756 mmHg 93%
    02:00 +17°C° 0 mm 2 m/S 756 mmHg 94%
    03:00 +17°C° 0 mm 2 m/S 756 mmHg 94%
    04:00 +17°C° 0 mm 2 m/S 756 mmHg 94%
    05:00 +17°C° 0 mm 3 m/S 755 mmHg 94%
    06:00 +18°C° 0 mm 3 m/S 755 mmHg 85%
    07:00 +20°C° 0 mm 4 m/S 755 mmHg 75%
    08:00 +22°C° 0 mm 4 m/S 755 mmHg 65%
    09:00 +25°C° 0 mm 4 m/S 755 mmHg 59%
    10:00 +27°C° 0 mm 4 m/S 754 mmHg 52%
    11:00 +28°C° 0 mm 4 m/S 754 mmHg 46%
    12:00 +29°C° 0 mm 5 m/S 753 mmHg 47%
    13:00 +29°C° 0 mm 6 m/S 753 mmHg 48%
    14:00 +29°C° 0 mm 6 m/S 752 mmHg 49%
    15:00 +28°C° 0 mm 5 m/S 752 mmHg 54%
    16:00 +26°C° 0 mm 4 m/S 752 mmHg 59%
    17:00 +25°C° 0 mm 4 m/S 751 mmHg 65%
    18:00 +22°C° 0 mm 3 m/S 752 mmHg 72%
    19:00 +20°C° 0 mm 2 m/S 752 mmHg 80%
    20:00 +20°C° 0 mm 1 m/S 753 mmHg 87%
    21:00 +18°C° 0 mm 2 m/S 753 mmHg 88%
    22:00 +17°C° 0 mm 2 m/S 753 mmHg 88%
    23:00 +17°C° 0 mm 3 m/S 753 mmHg 88%

    19 Dezember, Donnerstag

    Zeit Temperatur Niederschläge Wind Luftdruck Luftfeuchtigkeit
    00:00 +17°C° 0 mm 3 m/S 753 mmHg 90%
    01:00 +16°C° 0 mm 3 m/S 752 mmHg 92%
    02:00 +16°C° 0 mm 3 m/S 752 mmHg 94%
    03:00 +15°C° 0 mm 4 m/S 752 mmHg 94%
    04:00 +15°C° 0 mm 4 m/S 752 mmHg 94%
    05:00 +15°C° 0 mm 4 m/S 752 mmHg 94%
    06:00 +17°C° 0 mm 5 m/S 752 mmHg 86%
    07:00 +20°C° 0 mm 6 m/S 753 mmHg 78%
    08:00 +22°C° 0 mm 6 m/S 753 mmHg 70%
    09:00 +23°C° 0 mm 7 m/S 753 mmHg 61%
    10:00 +26°C° 0 mm 7 m/S 753 mmHg 52%
    11:00 +27°C° 0 mm 8 m/S 754 mmHg 43%
    12:00 +27°C° 0 mm 9 m/S 754 mmHg 44%
    13:00 +26°C° 0 mm 9 m/S 753 mmHg 45%
    14:00 +26°C° 0 mm 10 m/S 753 mmHg 46%
    15:00 +24°C° 0 mm 9 m/S 754 mmHg 49%
    16:00 +23°C° 0 mm 9 m/S 754 mmHg 53%
    17:00 +22°C° 0 mm 9 m/S 754 mmHg 56%
    18:00 +20°C° 0 mm 8 m/S 755 mmHg 62%
    19:00 +18°C° 0 mm 7 m/S 755 mmHg 68%
    20:00 +16°C° 0 mm 6 m/S 756 mmHg 73%
    21:00 +16°C° 0 mm 5 m/S 756 mmHg 73%
    22:00 +16°C° 0 mm 5 m/S 757 mmHg 73%
    23:00 +16°C° 0 mm 5 m/S 757 mmHg 73%

    20 Dezember, Freitag

    Zeit Temperatur Niederschläge Wind Luftdruck Luftfeuchtigkeit
    00:00 +16°C° 0 mm 5 m/S 757 mmHg 70%
    01:00 +17°C° 0 mm 4 m/S 758 mmHg 68%
    02:00 +17°C° 0 mm 4 m/S 758 mmHg 65%
    03:00 +15°C° 0 mm 4 m/S 758 mmHg 68%
    04:00 +14°C° 0 mm 3 m/S 758 mmHg 70%
    05:00 +14°C° 0 mm 3 m/S 759 mmHg 73%
    06:00 +16°C° 0 mm 2 m/S 759 mmHg 68%
    07:00 +17°C° 0 mm 2 m/S 759 mmHg 63%
    08:00 +18°C° 0 mm 2 m/S 760 mmHg 57%
    09:00 +18°C° 0 mm 3 m/S 760 mmHg 56%
    10:00 +19°C° 0 mm 3 m/S 760 mmHg 55%
    11:00 +19°C° 0 mm 3 m/S 760 mmHg 53%
    12:00 +20°C° 0 mm 3 m/S 760 mmHg 51%
    13:00 +21°C° 0 mm 3 m/S 760 mmHg 48%
    14:00 +22°C° 0 mm 3 m/S 759 mmHg 45%
    15:00 +21°C° 0 mm 4 m/S 759 mmHg 47%
    16:00 +20°C° 0 mm 4 m/S 759 mmHg 48%
    17:00 +20°C° 0 mm 5 m/S 759 mmHg 49%
    18:00 +19°C° 0 mm 5 m/S 760 mmHg 58%
    19:00 +16°C° 0 mm 5 m/S 760 mmHg 66%
    20:00 +15°C° 0 mm 5 m/S 760 mmHg 75%
    21:00 +15°C° 0 mm 5 m/S 760 mmHg 78%
    22:00 +15°C° 0 mm 6 m/S 760 mmHg 80%
    23:00 +15°C° 0 mm 6 m/S 761 mmHg 83%

    21 Dezember, Samstag

    Zeit Temperatur Niederschläge Wind Luftdruck Luftfeuchtigkeit
    00:00 +15°C° 0 mm 6 m/S 760 mmHg 82%
    01:00 +15°C° 0 mm 6 m/S 760 mmHg 80%
    02:00 +15°C° 0 mm 6 m/S 760 mmHg 79%
    03:00 +15°C° 0 mm 5 m/S 760 mmHg 80%
    04:00 +15°C° 0 mm 5 m/S 759 mmHg 81%
    05:00 +15°C° 0 mm 4 m/S 759 mmHg 82%
    06:00 +16°C° 0 mm 5 m/S 759 mmHg 78%
    07:00 +16°C° 0 mm 5 m/S 759 mmHg 74%
    08:00 +17°C° 0 mm 6 m/S 759 mmHg 69%
    09:00 +20°C° 0 mm 6 m/S 759 mmHg 66%
    10:00 +21°C° 0 mm 6 m/S 759 mmHg 62%
    11:00 +22°C° 0 mm 6 m/S 758 mmHg 58%
    12:00 +23°C° 0 mm 7 m/S 757 mmHg 55%
    13:00 +24°C° 0 mm 7 m/S 757 mmHg 53%
    14:00 +26°C° 0 mm 7 m/S 756 mmHg 51%
    15:00 +24°C° 0 mm 8 m/S 755 mmHg 56%
    16:00 +23°C° 0 mm 8 m/S 755 mmHg 61%
    17:00 +22°C° 0 mm 9 m/S 754 mmHg 66%
    18:00 +21°C° 0 mm 8 m/S 755 mmHg 71%
    19:00 +20°C° 0 mm 8 m/S 755 mmHg 77%
    20:00 +18°C° 0 mm 8 m/S 755 mmHg 82%
    21:00 +18°C° 0 mm 7 m/S 755 mmHg 83%
    22:00 +19°C° 0 mm 6 m/S 755 mmHg 83%
    23:00 +19°C° 0 mm 6 m/S 754 mmHg 84%
    Mehr zeigen